Location: Ward Pound Ridge Reservation
(41.2500°N, 73.6000°W)
Time: 16:23:05
(UTC-04:00)

ISS - Pass Details

Date: 10 October 2017
Orbit: 401 x 408 km, 51.6° (Epoch: 19 October)

Event Time Altitude Azimuth Distance (km) Brightness Sun altitude
Rises 19:42:15 0° 310° (NW) 2,327 1.0 -16.1°
Reaches altitude 10° 19:44:29 10° 321° (NW) 1,466 -0.4 -16.5°
Maximum altitude 19:47:28 31° 26° (NNE) 739 -2.7 -17.0°
Enters shadow 19:47:43 31° 36° (NE) 747 -2.8 -17.1°
